SCP
0 0 0 0 -0 -0 0 0 -0 -0 -0 -0 -0 -0 -0 -0 -0 -0 -0 0 0 0 0 0 1 1 3 2 1 1 1 1 0 0 0 0 0 0 0 0 0 0 0
0 0 0 0 0 -0 0 -0 -0 -0 -0 -0 -0 -0 -0 -0 0 -0 -0 -0 0 0 0 0 0 1 2 3 1 1 1 1 1 1 0 0 0 0 0 0 0 0 0
0 0 0 0 -0 -0 0 0 0 0 -0 0 -0 0 0 0 0 0 0 0 0 0 0 0 0 0 1 2 2 2 2 2 1 0 1 0 0 0 0 0 0 0 0
0 0 0 0 0 0 0 0 0 0 0 0 -0 0 0 0 0 0 0 0 0 0 0 0 0 0 1 1 2 2 2 2 2 0 0 0 0 0 0 0 0 0 0
0 0 0 0 -0 -0 -0 0 0 0 0 0 0 0 0 0 0 0 0 0 0 0 0 0 0 0 0 1 1 2 2 2 2 2 1 0 0 0 0 0 0 0 0
0 0 0 0 0 0 0 0 0 0 0 0 0 0 0 0 0 0 0 0 0 0 0 0 0 0 0 2 1 1 2 3 2 2 1 1 0 0 0 0 0 0 0
0 0 0 -0 0 0 0 0 0 0 0 0 0 0 0 0 0 0 0 0 0 0 0 0 0 0 0 0 0 0 0 1 2 2 1 1 0 0 0 0 0 0 0
0 0 -0 -0 0 0 0 0 0 0 0 0 0 0 0 0 0 0 0 0 0 0 0 0 0 0 0 0 0 0 -0 0 1 1 1 1 1 0 1 0 0 0 0
0 -0 -0 -0 -0 -0 0 0 0 0 0 0 0 0 0 0 0 0 0 0 0 0 0 0 0 0 0 0 0 0 0 0 1 2 1 1 1 1 0 0 0 0 0
0 -0 -0 -0 -0 -0 0 0 0 0 0 0 0 0 0 0 0 0 0 0 0 -0 0 0 0 0 0 0 0 0 0 0 0 2 1 1 1 1 1 0 0 0 0
0 0 0 0 -0 -0 -0 0 0 0 0 0 0 0 0 0 0 0 0 0 0 0 0 0 0 0 0 0 0 0 0 0 0 0 1 1 1 1 1 1 0 0 0
0 -0 0 0 0 -0 0 0 0 0 0 0 0 0 0 0 0 0 0 0 0 0 -0 0 0 0 0 0 0 0 0 0 0 -0 0 0 1 1 1 1 0 0 0
0 0 0 0 -0 -0 -0 0 0 0 0 0 0 0 0 0 0 0 0 0 -0 0 -0 -0 0 0 0 0 0 0 0 0 0 0 0 0 1 1 1 1 0 0 0
0 0 0 0 -0 -0 -0 -0 0 0 0 0 0 0 0 0 0 0 0 0 -0 -0 -0 -0 0 0 0 0 0 0 0 0 0 0 0 0 0 1 1 1 0 0 0
0 0 0 0 -0 -0 -0 -0 -0 0 0 0 0 0 0 0 0 0 0 0 0 0 -0 0 0 0 0 0 0 0 0 0 0 -0 0 0 0 0 1 1 1 0 0
0 0 0 0 -0 -0 -0 -0 -0 0 0 0 0 0 0 0 0 0 0 0 0 0 0 -0 -0 -0 0 0 0 0 0 0 0 0 0 -0 0 0 0 0 1 0 0
0 0 0 0 -0 -0 -0 -0 0 0 0 0 0 0 0 0 0 0 0 0 0 -0 0 0 0 -0 -0 -0 -0 0 0 0 0 0 0 0 0 0 0 0 0 0 0
0 0 0 0 -0 -0 -0 -0 0 0 0 0 0 0 0 0 0 0 0 0 0 0 0 0 -0 -0 -0 -0 -0 0 0 0 0 0 0 0 0 0 0 0 0 0 0
0 0 0 0 0 0 0 0 0 0 0 0 0 0 0 0 0 0 0 0 0 0 0 0 -0 0 -0 -0 -0 0 0 0 0 0 0 0 0 0 0 0 0 0 0
0 0 0 0 0 -0 0 0 0 0 0 0 0 0 0 0 0 0 0 0 0 0 0 0 0 -0 -0 -0 -0 0 0 0 0 0 0 0 0 0 0 0 0 0 0
0 0 0 0 0 0 0 0 0 0 0 0 0 0 0 0 0 0 0 0 0 0 0 -0 0 0 0 -0 -0 -0 0 0 0 0 0 0 0 0 0 0 0 0 0
0 0 0 0 0 0 0 0 0 0 0 0 0 0 0 0 0 0 0 0 0 0 0 0 0 0 0 0 -0 -0 -0 0 0 0 0 0 0 0 0 0 0 0 0
0 0 0 0 0 0 0 0 0 0 0 0 0 0 0 0 0 -0 0 0 0 0 0 0 0 0 0 0 0 0 0 0 0 0 0 0 0 0 0 0 0 0 0
0 0 0 0 0 0 0 0 0 0 0 0 0 0 0 0 0 -0 -0 -0 0 0 0 0 0 0 0 0 0 0 0 0 0 0 0 0 0 0 0 0 0 0 0
0 0 0 0 0 0 0 0 0 0 0 0 0 0 0 0 0 -0 -0 -0 0 0 0 0 0 0 0 0 0 0 0 0 0 0 0 0 0 0 0 0 0 0 0
0 0 0 0 0 0 0 0 0 0 0 0 0 0 0 0 0 -0 0 0 0 -0 -0 -0 -0 0 -0 0 0 0 0 0 0 0 0 0 0 0 0 0 0 0 0
Wind_Speed_500mb
25 27 30 36 43 50 58 65 73 73 78 81 88 88 94 94 95 91 93 81 80 91 87 90 81 88 98 94 94 85 76 72 69 57 58 60 59 60 61 62 65 63 58
26 36 42 46 52 58 66 72 74 77 79 84 86 89 95 97 94 89 86 88 67 75 91 87 88 84 94 96 99 99 92 82 81 77 61 52 57 62 65 64 67 67 64
31 37 43 48 54 63 70 72 73 74 79 84 91 93 90 82 84 86 87 81 77 64 81 90 93 84 88 97 107 108 104 99 91 91 62 42 31 59 68 65 68 69 68
30 36 45 52 57 61 68 68 71 75 78 81 85 85 83 89 91 97 97 93 83 77 72 90 92 90 86 97 100 116 115 108 104 98 90 72 52 44 38 71 72 73 75
28 36 37 40 49 61 68 69 71 71 75 78 75 78 77 82 88 92 94 92 89 79 72 76 99 88 79 96 99 114 121 118 104 113 101 91 74 52 60 49 81 74 80
22 29 33 43 54 64 70 72 71 67 71 72 74 75 76 80 86 89 89 90 80 79 73 59 88 101 88 88 104 104 123 125 119 112 108 107 100 86 67 60 72 93 83
22 27 33 45 60 71 73 71 66 66 68 70 70 75 74 75 80 84 85 88 86 80 73 73 70 108 90 91 93 98 62 82 126 121 115 117 107 93 73 60 55 67 79
23 27 34 50 65 71 72 71 66 64 67 69 68 70 74 70 75 76 73 81 80 83 71 83 68 88 84 83 81 94 95 119 102 124 126 115 118 108 84 77 66 48 66
17 24 42 55 62 65 67 69 65 63 65 70 68 69 71 71 70 69 67 72 77 73 62 62 62 59 71 66 68 84 70 113 94 120 126 120 110 114 104 84 76 74 64
24 33 45 50 53 58 64 66 63 64 68 71 70 66 68 75 68 70 61 65 60 56 43 41 41 52 54 63 62 77 81 100 116 117 116 122 114 111 108 101 92 82 76
32 36 38 48 54 58 68 71 66 67 68 71 71 70 72 74 75 67 57 55 53 39 29 42 44 52 59 56 57 68 93 97 79 91 103 121 117 117 107 107 97 92 87
18 28 41 51 57 60 69 72 66 67 67 70 69 73 73 74 73 71 63 55 56 41 28 40 53 53 63 73 72 75 93 83 103 111 51 96 113 123 108 104 103 107 96
17 29 41 51 55 61 68 68 62 68 65 67 68 73 76 77 75 75 66 58 47 46 36 34 46 55 52 57 64 59 78 104 120 104 78 79 115 132 120 109 99 103 101
20 28 41 51 52 57 65 63 62 66 64 64 67 75 78 76 76 70 70 59 52 41 35 32 37 53 51 60 75 71 69 101 103 113 104 79 112 127 124 115 102 101 98
25 32 44 46 44 54 64 64 62 63 61 62 65 72 75 71 71 71 68 66 53 49 39 27 13 18 42 58 58 69 68 90 110 104 79 93 109 128 118 112 102 103 99
21 30 41 34 41 54 63 61 61 59 57 61 64 66 73 70 68 69 68 66 59 52 47 39 20 14 11 33 61 71 58 73 75 105 79 139 111 114 102 99 99 104 102
20 29 33 31 40 52 57 57 59 51 52 59 64 64 69 73 67 64 65 63 62 62 55 49 40 30 30 17 19 51 77 78 81 86 63 112 109 82 81 78 85 79 91
18 26 32 35 42 49 54 52 54 50 51 57 63 62 63 71 68 62 60 59 59 60 62 60 50 41 43 14 12 19 36 79 78 66 69 61 64 78 76 72 73 80 95
19 27 33 36 41 48 51 51 52 50 51 56 59 60 59 66 70 63 61 56 56 56 59 58 58 53 50 36 3 14 19 13 41 53 52 54 60 64 71 52 70 88 88
19 28 34 37 42 48 47 49 50 52 52 55 55 54 53 59 65 64 58 52 49 50 53 55 56 58 54 39 19 15 17 17 21 15 59 58 52 60 56 57 76 76 61
19 27 34 38 42 45 45 47 47 51 48 49 48 49 50 52 60 62 58 54 49 47 50 54 57 57 55 52 35 12 7 11 15 11 14 19 33 59 45 33 70 58 38
24 31 35 37 39 39 40 44 46 46 45 46 47 47 48 50 55 59 63 61 57 55 57 56 59 62 60 53 50 36 22 15 10 8 18 25 30 32 41 45 33 32 34
27 32 33 32 34 35 38 41 43 44 48 43 47 46 47 49 51 59 64 68 68 65 66 67 66 65 62 58 48 44 35 25 22 25 25 27 28 27 34 33 35 40 40
28 28 31 34 36 37 36 37 38 39 43 41 43 46 47 48 49 52 57 62 66 68 66 66 68 66 64 61 55 44 35 29 26 21 19 21 20 24 29 37 37 33 33
24 27 33 35 36 35 35 35 37 38 41 39 40 44 45 45 45 48 56 44 48 52 54 57 54 58 59 55 45 43 40 34 28 25 26 28 30 26 22 25 28 25 26
25 28 31 32 32 34 34 32 36 38 43 39 40 42 41 42 43 44 49 36 39 41 41 41 43 39 33 34 36 36 30 29 26 31 39 40 39 37 34 29 27 25 25
Wind_Direction_500mb
53 32 16 4 357 350 343 341 338 336 333 330 327 320 315 310 307 300 297 285 268 260 250 250 256 253 247 243 234 235 233 229 222 221 221 219 220 220 217 218 212 214 215
37 17 7 360 356 349 343 343 340 339 338 334 330 324 317 309 305 304 301 295 285 269 258 249 248 254 249 240 233 230 230 228 222 213 218 213 220 219 217 216 217 218 216
29 16 7 2 356 349 346 343 342 340 339 338 333 328 319 312 314 313 305 301 298 277 264 252 246 246 252 242 236 230 228 226 217 216 208 197 213 215 218 221 220 217 214
26 15 5 2 354 346 344 345 344 342 341 342 337 331 326 322 321 317 314 310 302 292 273 257 250 246 249 246 235 232 228 227 220 212 216 215 210 196 214 214 220 223 220
26 17 7 355 347 348 350 348 345 345 343 342 339 332 327 321 317 313 310 308 304 299 289 264 248 247 241 245 244 233 228 226 221 219 213 211 209 221 217 214 215 221 225
33 14 3 353 353 354 353 349 344 343 344 343 341 336 332 324 316 312 311 308 304 301 299 279 255 243 242 241 240 235 225 225 223 226 223 212 209 217 212 220 214 214 221
23 8 1 356 356 358 354 347 342 343 346 346 343 338 337 326 315 310 310 306 302 298 293 290 261 243 242 243 244 246 231 216 227 226 226 222 214 217 220 228 217 209 219
16 6 1 2 1 0 355 350 345 344 347 349 345 339 337 332 320 310 307 301 297 295 289 290 259 237 240 248 255 243 261 254 234 228 231 227 223 220 221 223 222 205 213
13 6 6 4 1 0 358 352 349 345 348 349 344 343 341 334 330 318 318 305 297 292 289 282 255 229 240 244 252 248 235 227 234 228 232 231 228 226 222 220 219 220 208
14 8 6 2 1 2 359 356 353 350 350 349 347 343 343 341 339 332 330 311 303 301 278 282 233 237 240 240 246 243 237 216 233 221 229 234 231 229 226 222 224 226 231
10 1 359 2 2 1 360 358 356 352 351 348 347 349 345 346 342 340 331 333 318 315 281 256 249 241 238 244 246 242 224 230 219 226 232 234 234 231 227 224 224 226 231
1 357 1 2 1 1 359 358 354 354 353 348 349 351 351 349 348 340 343 342 338 319 287 266 248 246 251 248 250 230 227 230 224 240 233 239 232 234 229 226 224 229 231
4 5 5 7 2 360 358 356 355 355 354 350 352 353 353 352 352 348 344 353 341 338 295 275 256 245 241 244 232 228 239 230 229 232 244 259 230 233 229 227 224 228 230
12 9 4 7 359 357 357 356 355 357 355 353 355 354 356 353 353 351 348 352 359 350 330 342 277 241 245 240 228 235 228 217 226 230 240 259 228 227 229 227 225 226 225
13 11 6 3 355 353 356 356 356 357 356 358 354 352 357 354 355 353 355 352 0 8 6 323 345 253 208 215 221 224 233 232 232 231 222 235 228 233 229 227 223 224 223
17 7 5 359 355 354 355 354 354 356 358 1 359 353 357 358 356 356 354 355 359 4 12 12 357 331 357 207 227 224 226 226 218 215 229 232 235 228 227 228 229 231 226
19 6 3 358 354 353 353 355 353 356 360 4 0 356 356 1 359 359 354 357 356 4 6 12 11 2 345 290 211 212 227 213 217 208 234 231 205 216 220 224 231 234 237
13 2 357 348 351 349 352 354 357 0 1 6 358 358 356 2 3 1 358 357 358 3 7 11 10 6 5 340 262 174 171 203 215 217 235 239 230 221 221 219 229 232 233
359 352 347 339 343 351 354 355 1 3 5 4 357 357 359 1 6 4 4 1 -0 3 9 12 13 14 11 11 164 195 207 159 195 218 217 215 231 218 211 217 232 232 233
343 343 345 339 349 358 359 2 8 9 10 4 357 357 360 4 9 10 9 10 9 12 16 18 20 24 17 10 2 57 124 165 173 205 213 221 228 210 216 229 239 222 209
344 342 343 347 352 355 2 11 12 14 12 7 4 4 6 7 9 13 16 17 18 20 25 30 33 32 28 26 28 33 77 119 157 173 156 197 254 208 213 242 235 213 211
340 344 344 349 352 359 6 14 16 14 16 12 10 11 10 10 10 12 17 23 26 26 26 26 34 37 36 34 39 37 64 99 109 111 135 151 182 192 186 202 174 176 186
345 342 350 356 0 9 15 15 15 14 18 15 13 16 16 15 15 11 13 18 26 27 24 26 26 28 31 35 37 48 48 62 102 124 131 141 157 159 171 175 177 175 181
348 353 0 7 9 18 20 19 15 17 19 15 15 16 17 15 17 18 12 16 20 24 23 23 23 21 21 23 30 39 51 58 68 75 98 130 160 175 177 164 164 174 181
12 11 16 18 19 20 22 22 21 21 19 16 19 19 17 18 20 19 11 19 25 27 25 24 26 21 18 18 18 30 43 54 71 87 94 105 117 127 136 134 148 172 172
27 24 26 24 25 23 22 27 27 24 20 20 20 24 21 19 24 23 25 24 23 23 32 34 33 31 32 30 36 41 47 57 71 90 92 92 95 104 108 114 117 134 148
Wind_Speed_850mb
25 27 30 36 43 50 58 65 73 73 78 81 88 88 94 94 95 91 93 81 80 91 87 90 81 88 98 94 94 85 76 72 69 57 58 60 59 60 61 62 65 63 58
26 36 42 46 52 58 66 72 74 77 79 84 86 89 95 97 94 89 86 88 67 75 91 87 88 84 94 96 99 99 92 82 81 77 61 52 57 62 65 64 67 67 64
31 37 43 48 54 63 70 72 73 74 79 84 91 93 90 82 84 86 87 81 77 64 81 90 93 84 88 97 107 108 104 99 91 91 62 42 31 59 68 65 68 69 68
30 36 45 52 57 61 68 68 71 75 78 81 85 85 83 89 91 97 97 93 83 77 72 90 92 90 86 97 100 116 115 108 104 98 90 72 52 44 38 71 72 73 75
28 36 37 40 49 61 68 69 71 71 75 78 75 78 77 82 88 92 94 92 89 79 72 76 99 88 79 96 99 114 121 118 104 113 101 91 74 52 60 49 81 74 80
22 29 33 43 54 64 70 72 71 67 71 72 74 75 76 80 86 89 89 90 80 79 73 59 88 101 88 88 104 104 123 125 119 112 108 107 100 86 67 60 72 93 83
22 27 33 45 60 71 73 71 66 66 68 70 70 75 74 75 80 84 85 88 86 80 73 73 70 108 90 91 93 98 62 82 126 121 115 117 107 93 73 60 55 67 79
23 27 34 50 65 71 72 71 66 64 67 69 68 70 74 70 75 76 73 81 80 83 71 83 68 88 84 83 81 94 95 119 102 124 126 115 118 108 84 77 66 48 66
17 24 42 55 62 65 67 69 65 63 65 70 68 69 71 71 70 69 67 72 77 73 62 62 62 59 71 66 68 84 70 113 94 120 126 120 110 114 104 84 76 74 64
24 33 45 50 53 58 64 66 63 64 68 71 70 66 68 75 68 70 61 65 60 56 43 41 41 52 54 63 62 77 81 100 116 117 116 122 114 111 108 101 92 82 76
32 36 38 48 54 58 68 71 66 67 68 71 71 70 72 74 75 67 57 55 53 39 29 42 44 52 59 56 57 68 93 97 79 91 103 121 117 117 107 107 97 92 87
18 28 41 51 57 60 69 72 66 67 67 70 69 73 73 74 73 71 63 55 56 41 28 40 53 53 63 73 72 75 93 83 103 111 51 96 113 123 108 104 103 107 96
17 29 41 51 55 61 68 68 62 68 65 67 68 73 76 77 75 75 66 58 47 46 36 34 46 55 52 57 64 59 78 104 120 104 78 79 115 132 120 109 99 103 101
20 28 41 51 52 57 65 63 62 66 64 64 67 75 78 76 76 70 70 59 52 41 35 32 37 53 51 60 75 71 69 101 103 113 104 79 112 127 124 115 102 101 98
25 32 44 46 44 54 64 64 62 63 61 62 65 72 75 71 71 71 68 66 53 49 39 27 13 18 42 58 58 69 68 90 110 104 79 93 109 128 118 112 102 103 99
21 30 41 34 41 54 63 61 61 59 57 61 64 66 73 70 68 69 68 66 59 52 47 39 20 14 11 33 61 71 58 73 75 105 79 139 111 114 102 99 99 104 102
20 29 33 31 40 52 57 57 59 51 52 59 64 64 69 73 67 64 65 63 62 62 55 49 40 30 30 17 19 51 77 78 81 86 63 112 109 82 81 78 85 79 91
18 26 32 35 42 49 54 52 54 50 51 57 63 62 63 71 68 62 60 59 59 60 62 60 50 41 43 14 12 19 36 79 78 66 69 61 64 78 76 72 73 80 95
19 27 33 36 41 48 51 51 52 50 51 56 59 60 59 66 70 63 61 56 56 56 59 58 58 53 50 36 3 14 19 13 41 53 52 54 60 64 71 52 70 88 88
19 28 34 37 42 48 47 49 50 52 52 55 55 54 53 59 65 64 58 52 49 50 53 55 56 58 54 39 19 15 17 17 21 15 59 58 52 60 56 57 76 76 61
19 27 34 38 42 45 45 47 47 51 48 49 48 49 50 52 60 62 58 54 49 47 50 54 57 57 55 52 35 12 7 11 15 11 14 19 33 59 45 33 70 58 38
24 31 35 37 39 39 40 44 46 46 45 46 47 47 48 50 55 59 63 61 57 55 57 56 59 62 60 53 50 36 22 15 10 8 18 25 30 32 41 45 33 32 34
27 32 33 32 34 35 38 41 43 44 48 43 47 46 47 49 51 59 64 68 68 65 66 67 66 65 62 58 48 44 35 25 22 25 25 27 28 27 34 33 35 40 40
28 28 31 34 36 37 36 37 38 39 43 41 43 46 47 48 49 52 57 62 66 68 66 66 68 66 64 61 55 44 35 29 26 21 19 21 20 24 29 37 37 33 33
24 27 33 35 36 35 35 35 37 38 41 39 40 44 45 45 45 48 56 44 48 52 54 57 54 58 59 55 45 43 40 34 28 25 26 28 30 26 22 25 28 25 26
25 28 31 32 32 34 34 32 36 38 43 39 40 42 41 42 43 44 49 36 39 41 41 41 43 39 33 34 36 36 30 29 26 31 39 40 39 37 34 29 27 25 25
Wind_Direction_850mb
53 32 16 4 357 350 343 341 338 336 333 330 327 320 315 310 307 300 297 285 268 260 250 250 256 253 247 243 234 235 233 229 222 221 221 219 220 220 217 218 212 214 215
37 17 7 360 356 349 343 343 340 339 338 334 330 324 317 309 305 304 301 295 285 269 258 249 248 254 249 240 233 230 230 228 222 213 218 213 220 219 217 216 217 218 216
29 16 7 2 356 349 346 343 342 340 339 338 333 328 319 312 314 313 305 301 298 277 264 252 246 246 252 242 236 230 228 226 217 216 208 197 213 215 218 221 220 217 214
26 15 5 2 354 346 344 345 344 342 341 342 337 331 326 322 321 317 314 310 302 292 273 257 250 246 249 246 235 232 228 227 220 212 216 215 210 196 214 214 220 223 220
26 17 7 355 347 348 350 348 345 345 343 342 339 332 327 321 317 313 310 308 304 299 289 264 248 247 241 245 244 233 228 226 221 219 213 211 209 221 217 214 215 221 225
33 14 3 353 353 354 353 349 344 343 344 343 341 336 332 324 316 312 311 308 304 301 299 279 255 243 242 241 240 235 225 225 223 226 223 212 209 217 212 220 214 214 221
23 8 1 356 356 358 354 347 342 343 346 346 343 338 337 326 315 310 310 306 302 298 293 290 261 243 242 243 244 246 231 216 227 226 226 222 214 217 220 228 217 209 219
16 6 1 2 1 0 355 350 345 344 347 349 345 339 337 332 320 310 307 301 297 295 289 290 259 237 240 248 255 243 261 254 234 228 231 227 223 220 221 223 222 205 213
13 6 6 4 1 0 358 352 349 345 348 349 344 343 341 334 330 318 318 305 297 292 289 282 255 229 240 244 252 248 235 227 234 228 232 231 228 226 222 220 219 220 208
14 8 6 2 1 2 359 356 353 350 350 349 347 343 343 341 339 332 330 311 303 301 278 282 233 237 240 240 246 243 237 216 233 221 229 234 231 229 226 222 224 226 231
10 1 359 2 2 1 360 358 356 352 351 348 347 349 345 346 342 340 331 333 318 315 281 256 249 241 238 244 246 242 224 230 219 226 232 234 234 231 227 224 224 226 231
1 357 1 2 1 1 359 358 354 354 353 348 349 351 351 349 348 340 343 342 338 319 287 266 248 246 251 248 250 230 227 230 224 240 233 239 232 234 229 226 224 229 231
4 5 5 7 2 360 358 356 355 355 354 350 352 353 353 352 352 348 344 353 341 338 295 275 256 245 241 244 232 228 239 230 229 232 244 259 230 233 229 227 224 228 230
12 9 4 7 359 357 357 356 355 357 355 353 355 354 356 353 353 351 348 352 359 350 330 342 277 241 245 240 228 235 228 217 226 230 240 259 228 227 229 227 225 226 225
13 11 6 3 355 353 356 356 356 357 356 358 354 352 357 354 355 353 355 352 0 8 6 323 345 253 208 215 221 224 233 232 232 231 222 235 228 233 229 227 223 224 223
17 7 5 359 355 354 355 354 354 356 358 1 359 353 357 358 356 356 354 355 359 4 12 12 357 331 357 207 227 224 226 226 218 215 229 232 235 228 227 228 229 231 226
19 6 3 358 354 353 353 355 353 356 360 4 0 356 356 1 359 359 354 357 356 4 6 12 11 2 345 290 211 212 227 213 217 208 234 231 205 216 220 224 231 234 237
13 2 357 348 351 349 352 354 357 0 1 6 358 358 356 2 3 1 358 357 358 3 7 11 10 6 5 340 262 174 171 203 215 217 235 239 230 221 221 219 229 232 233
359 352 347 339 343 351 354 355 1 3 5 4 357 357 359 1 6 4 4 1 -0 3 9 12 13 14 11 11 164 195 207 159 195 218 217 215 231 218 211 217 232 232 233
343 343 345 339 349 358 359 2 8 9 10 4 357 357 360 4 9 10 9 10 9 12 16 18 20 24 17 10 2 57 124 165 173 205 213 221 228 210 216 229 239 222 209
344 342 343 347 352 355 2 11 12 14 12 7 4 4 6 7 9 13 16 17 18 20 25 30 33 32 28 26 28 33 77 119 157 173 156 197 254 208 213 242 235 213 211
340 344 344 349 352 359 6 14 16 14 16 12 10 11 10 10 10 12 17 23 26 26 26 26 34 37 36 34 39 37 64 99 109 111 135 151 182 192 186 202 174 176 186
345 342 350 356 0 9 15 15 15 14 18 15 13 16 16 15 15 11 13 18 26 27 24 26 26 28 31 35 37 48 48 62 102 124 131 141 157 159 171 175 177 175 181
348 353 0 7 9 18 20 19 15 17 19 15 15 16 17 15 17 18 12 16 20 24 23 23 23 21 21 23 30 39 51 58 68 75 98 130 160 175 177 164 164 174 181
12 11 16 18 19 20 22 22 21 21 19 16 19 19 17 18 20 19 11 19 25 27 25 24 26 21 18 18 18 30 43 54 71 87 94 105 117 127 136 134 148 172 172
27 24 26 24 25 23 22 27 27 24 20 20 20 24 21 19 24 23 25 24 23 23 32 34 33 31 32 30 36 41 47 57 71 90 92 92 95 104 108 114 117 134 148